Simultaneous Nadir Overpasses (SNOs) Predictions

Prediction of SNOs between METOP-A and NOAA-19 Satellite Orbit:

Table of predicted SNOs for the next 14.0 days since TLE Epoch: 5/6/2018
Index Date (METOP-A) Time (METOP-A) Lat,Lon (METOP-A) SZA (METOP-A ) Date (NOAA-19) Time (NOAA-19) Lat,Lon (NOAA-19) SZA (NOAA-19 ) Distance(km) Time Diff (sec)
1 05/09/2018 12:15:12 -78.56,-174.95 118.75 05/09/2018 12:14:00 -78.57,-176.30 118.80 29.67 72
2 05/09/2018 13:05:55 78.44, -8.32 61.10 05/09/2018 13:04:57 78.45, -8.25 61.10 1.69 58
3 05/09/2018 13:56:36 -78.42, 158.91 118.93 05/09/2018 13:55:57 -78.45, 158.95 118.91 3.51 39
4 05/09/2018 14:47:16 78.42, -33.78 61.06 05/09/2018 14:46:57 78.44, -33.71 61.08 2.80 19
5 05/09/2018 15:37:57 -78.44, 133.68 118.93 05/09/2018 15:37:57 -78.41, 133.73 118.96 3.68 0
6 05/09/2018 16:28:37 78.44, -59.01 61.06 05/09/2018 16:28:58 78.43, -59.17 61.05 3.54 21
7 05/09/2018 17:19:19 -78.42, 108.22 118.97 05/09/2018 17:19:58 -78.40, 108.28 118.98 2.37 39
8 05/09/2018 18:09:59 78.42, -84.47 61.02 05/09/2018 18:10:58 78.39, -84.39 61.00 3.36 59
9 05/09/2018 19:00:45 -78.24, 81.89 119.20 05/09/2018 19:01:55 -78.25, 83.74 119.12 41.84 70
10 05/20/2018 08:24:11 -78.61,-116.98 121.26 05/20/2018 08:23:00 -78.65,-118.75 121.30 39.06 71
11 05/20/2018 09:14:54 78.49, 49.64 58.59 05/20/2018 09:13:53 78.49, 49.59 58.58 1.11 61
12 05/20/2018 10:05:36 -78.48,-143.12 121.44 05/20/2018 10:04:56 -78.47,-143.02 121.45 2.48 40
13 05/20/2018 10:56:16 78.47, 24.18 58.55 05/20/2018 10:55:54 78.49, 24.13 58.56 1.95 22
14 05/20/2018 11:46:58 -78.46,-168.58 121.48 05/20/2018 11:46:57 -78.46,-168.48 121.47 2.33 1
15 05/20/2018 12:37:38 78.45, -1.28 58.51 05/20/2018 12:37:55 78.48, -1.33 58.54 3.41 17
16 05/20/2018 13:28:20 -78.44, 165.96 121.52 05/20/2018 13:28:58 -78.45, 166.07 121.49 3.08 38
17 05/20/2018 14:18:59 78.47, -26.52 58.52 05/20/2018 14:19:55 78.44, -26.56 58.49 3.67 56
18 05/20/2018 15:09:44 -78.34, 140.06 121.65 05/20/2018 15:10:56 -78.34, 141.30 121.59 27.85 72




NCC Satellite Simultaneous Nadir Overpasses (SNOs) Prediction Service
